Tacoma, WA

6:15 AM PDT on April 30, 2017 (GMT -0700)
McChord Air Force Base

Weather History for KTCM - June, 2012

Change the Weather History Date:

Thursday, June 14, 2012

  Actual Average Record
Temperature  
Mean Temperature 52 °F -  
Max Temperature 61 °F 67 °F 86 °F (1988)
Min Temperature 43 °F 47 °F 41 °F (1976)
Degree Days  
Heating Degree Days 13    
Growing Degree Days 2 (Base 50)    
Moisture  
Dew Point 44 °F    
Average Humidity 72    
Maximum Humidity 91    
Minimum Humidity 55    
Precipitation  
Precipitation 0.00 in - - ()
Sea Level Pressure  
Sea Level Pressure 30.15 in    
Wind  
Wind Speed 5 mph (SSW)    
Max Wind Speed 12 mph    
Max Gust Speed 17 mph    
Visibility 10 miles    
Events      
Averages and records for this station are not official NWS values.
T = Trace of Precipitation, MM = Missing Value Source: NWS Daily Summary

Daily Weather History Graph

Daily Weather History Graph

Search for Another Location

Airport or City:

Trip Planner

Search our weather history database for the weather conditions in past years. The results will help you decide how hot, cold, wet, or windy it might be!

Date:

Astronomy

Jun. 14, 2012 Rise Set
Actual Time 5:13 AM PDT 9:07 PM PDT
Civil Twilight 4:33 AM PDT 9:47 PM PDT
Nautical Twilight 3:39 AM PDT 10:42 PM PDT
Astronomical Twilight 2:16 AM PDT 12:04 AM PDT
Moon 2:12 AM PDT (6/14) 4:45 PM PDT (6/14)
Length of Visible Light 17h 13m
Length of Day
15h 53m
Waning Crescent, 20% of the Moon is Illuminated
Jun 14
Waning Crescent
Jun 19
New
Jun 26
First Quarter
Jul 3
Full
Jul 10
Last Quarter

Hourly Weather History & Observations

Time (PDT) Temp. Windchill Dew Point Humidity Pressure Visibility Wind Dir Wind Speed Gust Speed Precip Events Conditions
12:58 AM 49.1 °F - 43.2 °F 80% 30.17 in 10.0 mi West 3.5 mph - N/A   Clear
1:58 AM 44.4 °F 42.0 °F 42.1 °F 91% 30.17 in 10.0 mi South 4.6 mph - N/A   Clear
2:58 AM 45.7 °F 42.7 °F 42.3 °F 88% 30.17 in 10.0 mi WSW 5.8 mph - N/A   Clear
3:58 AM 43.3 °F 41.7 °F 40.3 °F 89% 30.16 in 10.0 mi SSW 3.5 mph - N/A   Clear
4:58 AM 44.8 °F 43.3 °F 42.3 °F 91% 30.16 in 10.0 mi SSE 3.5 mph - N/A   Overcast
5:58 AM 45.5 °F - 42.6 °F 90% 30.15 in 10.0 mi ESE 2.3 mph - N/A   Overcast
6:23 AM 46.4 °F - 42.8 °F 87% 30.14 in 10.0 mi SE 1.2 mph - N/A   Overcast
6:53 AM 46.4 °F - 42.8 °F 87% 30.14 in 10.0 mi SSE 1.2 mph - N/A   Overcast
6:58 AM 46.9 °F - 43.0 °F 86% 30.16 in 10.0 mi SSE 2.3 mph - N/A   Overcast
7:08 AM 48.2 °F - 42.8 °F 82% 30.14 in 10.0 mi South 2.3 mph - N/A   Overcast
7:58 AM 48.7 °F - 43.0 °F 80% 30.16 in 10.0 mi West 2.3 mph - N/A   Overcast
8:13 AM 50.0 °F - 42.8 °F 76% 30.14 in 10.0 mi Variable 4.6 mph - N/A   Overcast
8:58 AM 52.9 °F - 43.0 °F 69% 30.15 in 10.0 mi SW 8.1 mph - N/A   Overcast
9:13 AM 53.6 °F - 42.8 °F 67% 30.14 in 10.0 mi SW 6.9 mph - N/A   Overcast
9:28 AM 53.6 °F - 42.8 °F 67% 30.13 in 10.0 mi SSW 10.4 mph - N/A   Overcast
9:53 AM 55.4 °F - 42.8 °F 63% 30.13 in 10.0 mi SW 9.2 mph - N/A   Overcast
9:58 AM 55.0 °F - 43.9 °F 66% 30.14 in 10.0 mi South 6.9 mph - N/A   Overcast
10:58 AM 56.3 °F - 44.1 °F 64% 30.14 in 10.0 mi SW 9.2 mph - N/A   Overcast
11:58 AM 57.0 °F - 44.2 °F 62% 30.14 in 10.0 mi SW 11.5 mph - N/A   Overcast
12:58 PM 59.5 °F - 45.1 °F 59% 30.14 in 10.0 mi SSW 8.1 mph 17.3 mph N/A   Mostly Cloudy
1:55 PM 59.0 °F - 44.6 °F 59% 30.13 in 10.0 mi SW 9.2 mph - N/A   Mostly Cloudy
2:58 PM 59.5 °F - 45.5 °F 60% 30.16 in 10.0 mi SSW 8.1 mph - N/A   Overcast
3:58 PM 61.9 °F - 45.7 °F 55% 30.14 in 10.0 mi SW 4.6 mph - N/A   Overcast
4:58 PM 61.5 °F - 45.1 °F 55% 30.14 in 10.0 mi WSW 6.9 mph - N/A   Overcast
5:58 PM 60.8 °F - 45.3 °F 57% 30.14 in 10.0 mi WNW 5.8 mph - N/A   Overcast
6:58 PM 61.7 °F - 46.2 °F 57% 30.14 in 10.0 mi NE 4.6 mph - N/A   Overcast
7:58 PM 58.5 °F - 47.1 °F 66% 30.14 in 10.0 mi NE 5.8 mph - N/A   Overcast
8:58 PM 58.1 °F - 46.9 °F 66% 30.14 in 10.0 mi NNW 4.6 mph - N/A   Overcast
9:58 PM 55.4 °F - 47.1 °F 74% 30.15 in 10.0 mi North 6.9 mph - N/A   Overcast
10:58 PM 54.5 °F - 46.6 °F 75% 30.15 in 10.0 mi NNE 5.8 mph - N/A   Overcast
11:58 PM 52.0 °F - 45.7 °F 79% 30.17 in 10.0 mi NE 1.2 mph - N/A   Partly Cloudy